{"data":{"norad_id":65444,"epoch":"2026-09-20T12:55:54.625152Z","epoch_age_seconds":111553,"freshness":"FRESH","line1":"1 65444U 25194L   26263.53882668  .00017818  00000+0  55250-3 0  9993","line2":"2 65444  97.2843 113.1815 0001926  85.6617 274.4846 15.33469933 59071","mean_motion":15.33469933,"eccentricity":0.0001926,"inclination_deg":97.2843,"raan_deg":113.1815,"arg_perigee_deg":85.6617,"mean_anomaly_deg":274.4846,"bstar":0.0005525,"rev_number":5907,"period_min":93.904677816725,"perigee_km":464.15091390298,"apogee_km":466.78707093126,"semimajor_km":6843.6059924171,"source":"CELESTRAK","updated_at":"2026-09-21T09:00:35.610390Z"}}